CW0570 Weather Reports


Display with metric or nautical units.
time (UTC)temp
F
wind
direction
speed
MPH
gust
MPH
rain 1hr
in
rain 24hr
in
rain mn
in
humidity
%
barometer
mb
20260905083052 53 240 0.0 0.0 0.00 0.00 0.00 97 1018.1
20260905081550 53 240 0.0 0.0 0.00 0.00 0.00 97 1018.0
20260905080047 53 240 0.0 0.0 0.00 0.00 0.00 97 1017.9
20260905074551 53 240 0.0 0.0 0.00 0.00 0.00 97 1017.7
20260905073057 52 240 0.0 0.0 0.00 0.00 0.00 97 1017.9
20260905071545 53 240 0.0 0.0 0.00 0.00 0.00 97 1017.8
20260905070041 53 240 0.0 0.0 0.00 0.00 0.00 97 1017.8
20260905064540 53 240 0.0 2.0 0.00 0.00 0.00 96 1017.9
20260905063039 53 240 0.0 0.0 0.00 0.00 0.00 97 1017.7
20260905061539 53 240 0.0 0.0 0.00 0.00 0.00 96 1017.5
20260905060040 53 240 0.0 0.0 0.00 0.00 0.00 96 1017.6
20260905054544 53 240 0.0 0.0 0.00 0.00 0.00 96 1017.8
20260905053047 53 240 0.0 0.0 0.00 0.00 0.00 96 1017.8
20260905051536 53 240 0.0 0.0 0.00 0.00 0.00 96 1017.7
20260905050034 53 240 0.0 0.0 0.00 0.00 0.00 95 1017.6
20260905044535 54 240 0.0 0.0 0.00 0.00 0.00 95 1017.6
20260905043033 54 240 0.0 0.0 0.00 0.00 0.00 95 1017.4
20260905041532 55 240 0.0 0.0 0.00 0.00 0.00 94 1017.4
20260905040031 55 240 0.0 0.0 0.00 0.00 0.00 94 1017.3
20260905034529 56 240 0.0 1.0 0.00 0.00 0.00 94 1017.1
20260905033037 57 240 0.0 0.0 0.00 0.00 0.00 93 1016.9
20260905031527 57 240 0.0 0.0 0.00 0.00 0.00 93 1016.9
20260905030026 58 240 0.0 0.0 0.00 0.00 0.00 92 1016.7
20260905024525 58 240 0.0 2.0 0.00 0.00 0.00 92 1016.7
20260905023024 59 142 0.0 2.0 0.00 0.00 0.00 90 1016.6
20260905021522 60 142 0.0 2.0 0.00 0.00 0.00 89 1016.4
20260905020026 62 142 0.0 2.0 0.00 0.00 0.00 86 1016.2
20260905014520 63 142 0.0 2.0 0.00 0.00 0.00 82 1016.2
20260905013021 65 238 0.0 3.0 0.00 0.00 0.00 80 1016.3
20260905011520 65 33 0.0 2.0 0.00 0.00 0.00 77 1016.2
20260905010019 64 105 1.0 4.0 0.00 0.00 0.00 81 1016.1
20260905004519 64 263 0.0 4.0 0.00 0.00 0.00 76 1016.2
20260905003019 64 106 0.0 2.0 0.00 0.00 0.00 77 1016.2
20260905001518 65 265 0.0 5.0 0.00 0.00 0.00 77 1016.1
20260905000017 66 313 1.0 3.0 0.00 0.00 0.00 75 1016.0
20260904234517 65 113 1.0 3.0 0.00 0.07 0.00 79 1016.1
20260904233016 66 134 0.0 4.0 0.00 0.07 0.00 76 1016.1
20260904231514 65 316 0.0 6.0 0.00 0.07 0.00 75 1016.1
20260904230014 64 15 1.0 4.0 0.00 0.07 0.00 79 1016.2
20260904224513 64 9 3.0 6.0 0.00 0.07 0.00 77 1016.3
20260904223016 65 275 1.0 4.0 0.00 0.07 0.00 77 1016.3
20260904221512 65 81 0.0 3.0 0.00 0.07 0.00 76 1016.2
20260904220012 65 288 1.0 7.0 0.00 0.07 0.00 77 1016.2
20260904214512 64 327 1.0 5.0 0.00 0.12 0.00 75 1016.0
20260904213021 65 146 0.0 3.0 0.00 0.12 0.00 77 1015.9
20260904211517 65 313 1.0 4.0 0.00 0.12 0.00 75 1015.9
20260904210022 66 252 0.0 4.0 0.00 0.12 0.00 72 1016.0
20260904204509 65 264 0.0 3.0 0.00 0.12 0.00 72 1015.8
20260904203005 64 308 2.0 4.0 0.00 0.12 0.00 79 1015.6
20260904201503 64 53 0.0 2.0 0.00 0.12 0.00 84 1015.8
20260904200001 63 311 1.0 5.0 0.00 0.12 0.00 78 1015.8
20260904194608 62 9 0.0 2.0 0.00 0.12 0.00 85 1016.1
20260904193103 62 9 0.0 2.0 0.00 0.12 0.00 87 1016.2
20260904191558 61 9 0.0 2.0 0.00 0.12 0.00 87 1016.2
20260904190053 61 9 0.0 2.0 0.00 0.12 0.00 82 1016.2
20260904184555 60 12 0.0 2.0 0.00 0.13 0.00 83 1016.3
20260904183047 59 20 0.0 4.0 0.00 0.13 0.00 86 1016.3
20260904181544 58 26 0.0 4.0 0.00 0.13 0.00 90 1016.4
20260904180043 57 349 0.0 3.0 0.00 0.13 0.00 90 1016.4
20260904174544 56 322 0.0 3.0 0.00 0.13 0.00 92 1016.4
20260904173039 55 329 0.0 2.0 0.00 0.13 0.00 95 1016.3
20260904171534 53 252 0.0 2.0 0.00 0.13 0.00 95 1016.3
20260904170027 52 252 0.0 2.0 0.00 0.13 0.00 96 1016.2
20260904164526 52 251 0.0 1.0 0.00 0.15 0.00 96 1016.0
20260904163030 51 251 0.0 2.0 0.00 0.15 0.00 97 1016.1
20260904161526 51 251 0.0 0.0 0.00 0.15 0.00 97 1016.1
20260904160021 50 252 0.0 2.0 0.00 0.15 0.00 98 1016.0
20260904154521 50 251 0.0 2.0 0.00 0.16 0.00 98 1016.0
20260904153021 49 251 0.0 2.0 0.00 0.16 0.00 98 1015.9
20260904151516 49 251 0.0 0.0 0.00 0.16 0.00 98 1015.8
20260904150026 49 251 0.0 2.0 0.00 0.16 0.00 98 1015.8
20260904144511 48 251 0.0 2.0 0.00 0.23 0.00 98 1015.7
20260904143013 48 251 0.0 0.0 0.00 0.23 0.00 98 1015.5
20260904141510 48 251 0.0 0.0 0.00 0.23 0.00 98 1015.4
20260904140008 47 251 0.0 0.0 0.00 0.23 0.00 98 1015.3
20260904134518 47 251 0.0 0.0 0.00 0.23 0.00 98 1015.1
20260904133006 47 251 0.0 0.0 0.00 0.23 0.00 97 1015.1
20260904131505 47 251 0.0 0.0 0.00 0.23 0.00 97 1015.0
20260904130003 48 251 0.0 2.0 0.00 0.23 0.00 98 1014.9
20260904124502 48 251 0.0 2.0 0.00 0.24 0.00 97 1014.8
20260904123100 48 251 0.0 2.0 0.00 0.24 0.00 98 1015.0
20260904121559 48 251 0.0 2.0 0.00 0.24 0.00 98 1015.0
20260904120106 48 251 0.0 1.0 0.00 0.24 0.00 98 1015.1
20260904114557 48 251 0.0 0.0 0.00 0.24 0.00 98 1015.0
20260904113058 48 251 0.0 0.0 0.00 0.24 0.00 98 1015.1
20260904111554 49 251 0.0 1.0 0.00 0.24 0.00 98 1015.0
20260904110024 49 251 0.0 0.0 0.00 0.24 0.00 98 1014.9
20260904104552 49 251 0.0 0.0 0.00 0.24 0.00 98 1014.7
20260904103051 49 251 0.0 0.0 0.00 0.24 0.00 98 1014.6
20260904101551 49 251 0.0 0.0 0.00 0.24 0.00 97 1014.4
20260904100051 49 251 0.0 0.0 0.00 0.24 0.00 97 1014.4
20260904094551 49 251 0.0 0.0 0.00 0.24 0.00 97 1014.5
20260904093047 49 251 0.0 0.0 0.00 0.24 0.00 97 1014.7
20260904091545 49 251 0.0 0.0 0.00 0.24 0.00 97 1014.6
20260904090044 49 251 0.0 2.0 0.00 0.24 0.00 97 1014.8
20260904084542 49 141 0.0 0.0 0.00 0.24 0.00 97 1014.8